User: anonymous   Login
Location: Franzen
(48.6167°N, 15.3833°E)
Time: 10:22:36
(UTC+00:00)
Language:

Vanguard 2 - Orbit

View from above orbital plane
View from above orbital plane
View from above satellite
View from above satellite

Ground track
Ground track

The orbit data is extracted from the following two-line orbital elements,

1 00011U 59001A   21214.60280612 -.00000083  00000-0 -38918-4 0  9998
2 00011  32.8684 311.5976 1468076  52.7647 319.8072 11.85800991323796
Epoch (UTC): 02 August 2021 14:28:02
Eccentricity: 0.1468076
inclination: 32.8684°
perigee height: 552 km
apogee height: 2937 km
right ascension of ascending node: 311.5976°
argument of perigee: 52.7647°
revolutions per day: 11.85800991
mean anomaly at epoch: 319.8072°
orbit number at epoch: 32379

The dashed part of the orbit path shows where the satellite is in the earth's shadow,  

DLR